Location: Unspecified
(0.0000°N, 0.0000°E)
Time: 22:15:24
(UTC+00:00)

AO-7 - Pass Details

Date: 04 October 2021
Orbit: 1439 x 1459 km, 101.9° (Epoch: 24 October)

Event Time Altitude Azimuth Distance (km) Brightness Sun altitude
Rises 02:51:48 0° 35° (NE) 4,519 ? -44.1°
Reaches altitude 10° 02:54:53 10° 43° (NE) 3,543 ? -43.3°
Maximum altitude 03:02:12 36° 107° (ESE) 2,130 ? -41.5°
Drops below altitude 10° 03:09:32 10° 169° (S) 3,554 ? -39.7°
Sets 03:12:35 0° 177° (S) 4,536 ? -38.9°
